Location: Franzen
(48.6167°N, 15.3833°E)
Time: 09:47:43
(UTC+00:00)

Cosmos 962 Rocket - Pass Details

Date: 22 April 2021
Orbit: 950 x 1000 km, 83.0° (Epoch: 16 May)

Event Time Altitude Azimuth Distance (km) Brightness Sun altitude
Rises 23:43:34 0° 349° (N) 3,671 8.5 -28.0°
Reaches altitude 10° 23:46:05 10° 348° (NNW) 2,713 7.6 -27.9°
Maximum altitude 23:52:16 75° 264° (W) 992 4.4 -27.6°
Enters shadow 23:52:36 73° 235° (SW) 1,001 4.3 -27.6°
